Tracking 30986 objects as of 9-Jul-2025
HD Live streaming from Space Station
objects crossing your sky now

STARLINK-30101

Track STARLINK-30101 now!
10-day predictions
STARLINK-30101 is classified as:


NORAD ID: 56301
Int'l Code: 2023-056R
Perigee: 565.2 km
Apogee: 567.1 km
Inclination: 43.0 °
Period: 95.8 minutes
Semi major axis: 6937 km
RCS: Unknown
Launch date: April 19, 2023
Source: United States (US)
Launch site: AIR FORCE EASTERN TEST RANGE (AFETR)
Your satellite tracking list
Your tracking list is empty




NASA's NSSDC Master Catalog

Two Line Element Set (TLE):
1 56301U 23056R   25190.44543708  .00002472  00000-0  19791-3 0  9998
2 56301  43.0035  91.9914 0001415 271.0161  89.0519 15.02553239123490
Source of the keplerian elements: AFSPC